Location: Mahannah Oil Field
(37.4664°N, 96.6003°W)
Time: 00:28:06
(UTC+00:00)

deb Explorer IX - Pass Details

Date: 02 February 2021
Orbit: 538 x 1101 km, 38.8° (Epoch: 06 March)

Event Time Altitude Azimuth Distance (km) Brightness Sun altitude
Rises 01:15:01 0° 285° (WNW) 3,795 ? -16.9°
Reaches altitude 10° 01:17:55 10° 282° (WNW) 2,777 ? -17.5°
Maximum altitude 01:24:27 57° 206° (SSW) 1,064 ? -18.8°
Enters shadow 01:28:24 20° 134° (SE) 1,834 ? -19.6°
